Flag for India Weather past 2 weeks in Kannauj, Uttar Pradesh, India

Now
86 °F

Broken clouds.


Feels Like: 102 °F
Forecast: 82 / 99 °F
Wind: 2 mph from North

Location: Lucknow / Amausi

Current Time: Jul 26, 2014 at 5:35:10 PM

Latest Report: Jul 26, 2014 at 5:00 PM


Visibility: 2 mi

Pressure: 29.56 "Hg

Humidity: 84%

Dew point: 81 °F

Location of KannaujLocation

Historic Weather in Kannauj — Graph

°F

Kannauj temperature yesterday

Maximum temperature yesterday: 91 °F (at 1:30 PM)
Minimum temperature yesterday: 79 °F (at 4:00 AM)
Average temperature yesterday: 86 °F

Past Weeks' High & Low Weather Summary

 TemperatureHumidityPressure
High102 °F (Jul 21, 12:30 PM)100% (Jul 13, 4:30 PM)29.65 "Hg (Jul 13, 4:30 PM)
Low77 °F (Jul 18, 11:30 AM)55% (Jul 26, 11:00 AM)28.29 "Hg (Jul 14, 5:30 PM)
Average86 °F83%29.46 "Hg
* Reported Jul 11 3:30 PM — Jul 26 3:30 PM, Kannauj, Weather by CustomWeather, © 2014

Note: Actual official high and low records may vary slightly from our data, if they occured in-between our weather recording intervals... More about our weather records

Advertising

Kannauj weather history for previous 24 hours

 ConditionsComfort  
Time TempWeatherWind HumidityBarometerVisibility
3:30 PM
Jul 26
88 °FBroken clouds.5 mph79%29.56 "Hg2 mi
3:00 PM86 °FBroken clouds.2 mph84%29.59 "Hg2 mi
2:00 PM84 °FBroken clouds.2 mph89%29.59 "Hg2 mi
12:00 PM88 °FMore clouds than sun.No wind79%29.65 "Hg2 mi
11:00 AM88 °FBroken clouds.No wind55%29.65 "Hg2 mi
10:30 AM86 °FBroken clouds.3 mph84%29.65 "Hg2 mi
10:00 AM86 °FBroken clouds.No wind84%29.65 "Hg2 mi
9:30 AM84 °FMore clouds than sun.No wind89%29.65 "Hg2 mi
9:00 AM84 °FBroken clouds.No wind89%29.65 "Hg2 mi
7:30 AM84 °FBroken clouds.No wind89%29.65 "Hg2 mi
6:30 AM82 °FBroken clouds.No wind89%29.62 "Hg2 mi
6:00 AM81 °FBroken clouds.No wind94%29.62 "Hg2 mi
5:30 AM81 °FPartly cloudy.No wind94%29.62 "Hg2 mi
5:00 AM82 °FPassing clouds.No wind89%29.59 "Hg2 mi
4:00 AM82 °FPassing clouds.No wind89%29.59 "Hg2 mi
3:00 AM82 °FHaze.No wind89%29.59 "Hg2 mi
2:00 AM82 °FHaze.No wind89%29.59 "Hg2 mi
1:00 AM84 °FHaze.No wind84%29.59 "Hg2 mi
12:00 AM84 °FHaze.No wind89%29.62 "Hg2 mi
11:00 PM
Jul 25
84 °FHaze.No wind84%29.62 "Hg2 mi
10:00 PM86 °FPassing clouds.No wind79%29.62 "Hg3 mi
9:00 PM86 °FPassing clouds.No wind79%29.59 "Hg3 mi
8:00 PM86 °FPassing clouds.No wind75%29.56 "Hg3 mi
7:00 PM88 °FPartly sunny.No wind66%29.53 "Hg3 mi
6:30 PM88 °FPartly sunny.No wind66%29.53 "Hg3 mi
6:00 PM88 °FPartly sunny.No wind66%29.53 "Hg3 mi
5:30 PM88 °FBroken clouds.No wind70%29.50 "Hg3 mi
5:00 PM91 °FBroken clouds.6 mph63%29.53 "Hg3 mi
Weather by CustomWeather, © 2014

See weather overviewHow to use our weather pages